1487757600.56,51935,11.0,72598.0,-3.57,-6.69,-6.69,0,*5A
1487757601.76,51936,11.0,72596.3,-3.57,-6.73,-6.59,0,*51
1487757602.98,51937,11.0,72602.0,-3.55,-6.39,-6.43,0,*57
1487757604.18,51938,11.0,72596.8,-3.57,-6.09,-6.09,0,*57
1487757605.38,51939,11.0,72594.8,-3.57,-6.47,-6.43,0,*52
1487757606.63,51940,11.0,72594.3,-3.57,-6.93,-6.97,0,*5C
1487757607.86,51941,11.0,72588.3,-3.59,-6.85,-6.81,0,*53
1487757609.07,51942,11.0,72592.0,-3.57,-6.55,-6.47,0,*59
1487757610.27,51943,11.0,72588.0,-3.57,-6.31,-6.31,0,*5B
1487757611.47,51944,11.0,72582.5,-3.57,-6.73,-6.69,0,*57
1487757612.72,51945,11.0,72574.5,-3.59,-6.35,-6.23,0,*54
1487757614.0,51946,11.0,72576.3,-3.59,-5.93,-5.93,0,*50
1487757615.28,51947,11.0,72584.8,-3.59,-5.93,-5.93,0,*51
1487757616.53,51948,11.0,72590.3,-3.57,-5.77,-5.85,0,*5D
1487757617.78,51949,11.0,72590.5,-3.55,-5.97,-5.89,0,*5C
1487757619.04,51950,11.0,72588.8,-3.57,-5.77,-5.65,0,*5A
1487757620.31,51951,11.0,72586.0,-3.55,-5.61,-5.61,0,*5A
1487757621.59,51952,11.0,72586.0,-3.55,-5.65,-5.61,0,*5D
1487757622.84,51953,11.0,72576.3,-3.53,-5.85,-5.73,0,*57
1487757624.1,51954,11.0,72578.5,-3.53,-5.85,-5.85,0,*59
1487757625.35,51955,11.0,72578.3,-3.53,-5.65,-5.61,0,*5C
1487757626.61,51956,11.0,72580.8,-3.53,-5.89,-5.85,0,*57
1487757627.87,51957,11.0,72600.8,-3.49,-5.93,-5.85,0,*56
1487757629.11,51958,11.0,72608.5,-3.53,-5.73,-5.65,0,*52
1487757630.36,51959,11.0,72604.5,-3.51,-5.97,-5.85,0,*55
1487757631.64,51960,11.0,72604.0,-3.51,-5.93,-5.81,0,*5F
1487757632.92,51961,11.0,72600.5,-3.51,-5.93,-5.81,0,*5E
1487757634.15,51962,11.0,72602.0,-3.51,-5.55,-5.35,0,*58
1487757635.44,51963,11.0,72594.3,-3.51,-5.23,-5.23,0,*5F
1487757636.69,51964,11.0,72592.8,-3.49,-5.23,-5.19,0,*58
1487757637.97,51965,11.0,72612.8,-3.47,-5.15,-5.03,0,*59
1487757639.21,51966,11.0,72616.0,-3.47,-5.39,-5.31,0,*55
1487757640.46,51967,11.0,72612.8,-3.47,-5.39,-5.15,0,*52
1487757641.68,51968,11.0,72614.0,-3.45,-5.69,-5.51,0,*5A
1487757642.91,51969,11.0,72608.3,-3.45,-5.39,-5.27,0,*5F
1487757644.16,51970,11.0,72612.8,-3.45,-5.15,-5.15,0,*58
1487757645.38,51971,11.0,72602.8,-3.45,-5.65,-5.55,0,*5A
1487757646.63,51972,11.0,72590.3,-3.43,-5.61,-5.51,0,*5F
1487757647.82,51973,11.0,72580.5,-3.45,-6.05,-6.01,0,*5F
1487757649.02,51974,11.0,72566.0,-3.45,-6.31,-6.31,0,*5C
1487757650.21,51975,11.0,72560.8,-3.45,-6.59,-6.59,0,*5D
1487757651.44,51976,11.0,72572.8,-3.47,-6.35,-6.35,0,*5C
1487757652.66,51977,11.0,72578.0,-3.47,-6.35,-6.35,0,*5D
1487757653.88,51978,11.0,72580.0,-3.49,-6.27,-6.35,0,*5F
1487757655.09,51979,11.0,72578.3,-3.49,-6.51,-6.59,0,*55
1487757656.28,51980,11.0,72582.3,-3.49,-6.39,-6.35,0,*57
1487757657.48,51981,11.0,72554.0,-3.49,-6.01,-6.13,0,*59
1487757658.68,51982,11.0,72536.5,-3.49,-6.35,-6.39,0,*55
1487757659.91,51983,11.0,72542.3,-3.51,-6.59,-6.59,0,*51
1487757661.13,51984,11.0,72544.5,-3.51,-6.73,-6.77,0,*52
1487757662.36,51985,11.0,72560.0,-3.53,-6.93,-6.81,0,*56
1487757663.56,51986,11.0,72568.3,-3.53,-6.81,-6.69,0,*50
1487757664.76,51987,11.0,72572.8,-3.53,-6.43,-6.39,0,*5A
1487757665.99,51988,11.0,72574.5,-3.55,-6.31,-6.31,0,*5E
1487757667.23,51989,11.0,72576.5,-3.55,-6.19,-6.13,0,*55
1487757668.45,51990,11.0,72580.8,-3.55,-6.05,-5.97,0,*5F
1487757669.7,51991,11.0,72582.5,-3.55,-6.01,-5.89,0,*55
1487757670.97,51992,11.0,72586.5,-3.55,-5.85,-5.73,0,*5C
1487757672.23,51993,11.0,72588.5,-3.55,-5.73,-5.65,0,*53
1487757673.49,51994,11.0,72592.0,-3.57,-5.81,-5.77,0,*58
1487757674.76,51995,11.0,72590.3,-3.55,-5.85,-5.77,0,*5F
1487757676.01,51996,11.0,72596.3,-3.53,-5.89,-5.77,0,*56
1487757677.23,51997,10.94,72596.0,-3.53,-5.61,-5.51,0,*55
1487757678.43,51998,11.0,72602.3,-3.53,-6.05,-6.01,0,*5D
1487757679.67,51999,11.0,72604.0,-3.53,-6.63,-6.63,0,*58
1487757680.88,52000,11.0,72596.8,-3.53,-6.77,-6.81,0,*5B
1487757682.11,52001,11.0,72588.5,-3.55,-6.55,-6.55,0,*55
1487757683.33,52002,11.0,72590.8,-3.55,-6.51,-6.39,0,*58
1487757684.54,52003,11.0,72596.5,-3.55,-6.05,-5.97,0,*5F
1487757685.77,52004,11.0,72600.3,-3.57,-6.01,-5.93,0,*5A
1487757687.0,52005,11.0,72602.3,-3.57,-6.01,-5.93,0,*5B
1487757688.2,52006,11.0,72614.3,-3.57,-6.09,-6.01,0,*58
1487757689.4,52007,11.0,72600.5,-3.57,-6.47,-6.43,0,*55
1487757690.63,52008,11.0,72618.3,-3.57,-6.89,-6.93,0,*55
1487757691.86,52009,11.0,72626.8,-3.57,-7.01,-7.11,0,*5E
1487757693.08,52010,11.0,72620.0,-3.59,-7.23,-7.15,0,*5C
1487757694.28,52011,11.0,72614.8,-3.61,-6.89,-6.89,0,*53
1487757695.53,52012,11.0,72608.0,-3.61,-7.31,-7.31,0,*50
1487757696.77,52013,11.0,72596.8,-3.61,-7.39,-7.39,0,*51
1487757698.0,52014,11.0,72592.5,-3.65,-7.05,-7.11,0,*57
1487757699.24,52015,11.0,72596.0,-3.67,-6.81,-6.81,0,*51
1487757700.46,52016,11.0,72596.0,-3.67,-6.69,-6.69,0,*52
1487757701.73,52017,11.0,72598.0,-3.67,-6.63,-6.63,0,*53
1487757702.94,52018,11.0,72588.0,-3.65,-6.31,-6.31,0,*5E
1487757704.17,52019,11.0,72572.3,-3.67,-6.77,-6.77,0,*5D
1487757705.4,52020,11.0,72592.3,-3.67,-6.51,-6.51,0,*57
1487757706.65,52021,11.0,72594.5,-3.69,-6.23,-6.23,0,*58
1487757707.85,52022,11.0,72606.5,-3.69,-6.13,-6.13,0,*5B
1487757709.13,52023,11.0,72618.3,-3.71,-5.93,-5.89,0,*58
1487757710.36,52024,11.0,72622.3,-3.69,-6.01,-5.89,0,*5E
1487757711.61,52025,11.0,72620.0,-3.69,-5.93,-5.77,0,*56
1487757712.81,52026,11.0,72614.5,-3.69,-6.31,-6.31,0,*5F
1487757714.02,52027,11.0,72606.8,-3.69,-6.81,-6.85,0,*5A
1487757715.24,52028,11.0,72600.5,-3.71,-6.85,-6.85,0,*58
1487757716.44,52029,11.0,72594.0,-3.69,-6.85,-6.85,0,*50
1487757717.63,52030,11.0,72594.0,-3.69,-6.69,-6.59,0,*5B
1487757718.88,52031,11.0,72590.5,-3.71,-6.01,-5.93,0,*58
1487757720.16,52032,11.0,72596.0,-3.71,-6.19,-6.19,0,*53
1487757721.37,52033,11.0,72602.3,-3.69,-6.35,-6.31,0,*5F
1487757722.59,52034,10.94,72614.8,-3.71,-6.47,-6.43,0,*51
1487757723.83,52035,11.0,72618.8,-3.71,-6.23,-6.13,0,*57
1487757725.05,52036,11.0,72622.3,-3.71,-6.13,-6.13,0,*57
1487757726.28,52037,11.0,72612.3,-3.71,-6.43,-6.35,0,*57
1487757727.5,52038,11.0,72612.0,-3.71,-6.13,-6.01,0,*5A
1487757728.72,52039,11.0,72596.3,-3.71,-6.35,-6.35,0,*58
1487757729.97,52040,11.0,72600.3,-3.71,-6.13,-5.93,0,*5D
1487757731.23,52041,11.0,72618.8,-3.71,-5.77,-5.55,0,*57
1487757732.5,52042,11.0,72612.5,-3.71,-5.77,-5.65,0,*57
1487757733.75,52043,11.0,72602.3,-3.69,-5.81,-5.81,0,*5C
1487757735.0,52044,11.0,72614.0,-3.69,-5.77,-5.65,0,*58
1487757736.25,52045,11.0,72624.8,-3.71,-6.13,-6.19,0,*59
1487757737.53,52046,11.0,72624.8,-3.71,-5.93,-5.93,0,*50
1487757738.79,52047,11.0,72622.5,-3.69,-5.93,-5.93,0,*58
1487757739.99,52048,11.0,72622.5,-3.69,-6.01,-6.01,0,*57
1487757741.22,52049,11.0,72614.8,-3.69,-6.01,-5.89,0,*55
1487757742.42,52050,10.94,72612.3,-3.69,-6.01,-6.01,0,*5E
1487757743.61,52051,11.0,72608.8,-3.69,-6.05,-6.05,0,*5F
1487757744.8,52052,11.0,72610.0,-3.69,-6.05,-6.01,0,*58
1487757746.08,52053,11.0,72608.8,-3.71,-6.19,-6.19,0,*54
1487757747.33,52054,11.0,72608.8,-3.71,-6.01,-5.93,0,*5B
1487757748.6,52055,11.0,72598.5,-3.71,-5.77,-5.77,0,*52
1487757749.87,52056,11.0,72598.0,-3.71,-5.81,-5.81,0,*51
1487757751.13,52057,11.0,72592.8,-3.69,-5.93,-5.81,0,*5A
1487757752.36,52058,10.94,72586.5,-3.71,-6.31,-6.31,0,*5F
1487757753.58,52059,10.94,72582.8,-3.71,-6.35,-6.35,0,*5E
1487757754.8,52060,11.0,72588.8,-3.71,-6.05,-6.05,0,*54
1487757756.05,52061,11.0,72582.5,-3.71,-6.19,-6.13,0,*5F
1487757757.27,52062,11.0,72578.8,-3.69,-6.19,-6.13,0,*55
1487757758.55,52063,11.0,72568.0,-3.71,-6.19,-6.19,0,*57
1487757759.77,52064,11.0,72564.8,-3.71,-6.47,-6.35,0,*55
1487757761.0,52065,11.0,72566.3,-3.73,-6.51,-6.47,0,*54
1487757762.23,52066,11.0,72574.8,-3.73,-6.39,-6.35,0,*5C
1487757763.48,52067,11.0,72572.8,-3.73,-6.35,-6.27,0,*52
1487757764.71,52068,11.0,72574.8,-3.73,-6.39,-6.39,0,*5E
1487757765.96,52069,10.94,72582.8,-3.73,-6.35,-6.27,0,*5C
1487757767.24,52070,11.0,72574.8,-3.73,-6.19,-6.19,0,*57
1487757768.53,52071,10.94,72560.3,-3.73,-5.93,-5.93,0,*56
1487757769.8,52072,11.0,72568.0,-3.73,-5.73,-5.61,0,*56
1487757771.02,52073,11.0,72564.8,-3.75,-5.61,-5.47,0,*56
1487757772.25,52074,11.0,72594.8,-3.73,-5.47,-5.43,0,*57
1487757773.48,52075,10.94,72584.0,-3.73,-5.55,-5.43,0,*55
1487757774.74,52076,11.0,72586.8,-3.71,-5.65,-5.55,0,*50
1487757775.95,52077,11.0,72584.8,-3.71,-5.43,-5.43,0,*52
1487757777.18,52078,11.0,72574.0,-3.71,-5.55,-5.51,0,*59
1487757778.44,52079,11.0,72578.5,-3.69,-5.69,-5.69,0,*55
1487757779.71,52080,11.0,72588.5,-3.71,-5.93,-5.81,0,*59
1487757780.96,52081,11.0,72586.3,-3.69,-5.81,-5.77,0,*5B
1487757782.18,52082,11.0,72584.5,-3.71,-6.01,-6.01,0,*58
1487757783.41,52083,11.0,72582.0,-3.69,-6.05,-5.93,0,*5C
1487757784.6,52084,11.0,72568.0,-3.69,-6.05,-6.05,0,*57
1487757785.83,52085,11.0,72578.0,-3.71,-6.35,-6.31,0,*5B
1487757787.06,52086,11.0,72578.8,-3.71,-6.31,-6.31,0,*5C
1487757788.28,52087,11.0,72580.8,-3.71,-6.55,-6.47,0,*5E
1487757789.56,52088,11.0,72586.5,-3.73,-6.19,-6.19,0,*50
1487757790.84,52089,11.0,72582.3,-3.73,-6.23,-6.23,0,*51
1487757792.06,52090,11.0,72584.3,-3.73,-6.47,-6.47,0,*59
1487757793.29,52091,11.0,72574.8,-3.73,-6.39,-6.35,0,*54
1487757794.52,52092,10.94,72568.3,-3.73,-6.59,-6.59,0,*5B
1487757795.75,52093,10.94,72570.3,-3.73,-6.77,-6.77,0,*5A
1487757796.97,52094,11.0,72576.0,-3.75,-6.73,-6.63,0,*5A
1487757798.2,52095,11.0,72582.3,-3.73,-6.73,-6.73,0,*5C
1487757799.42,52096,11.0,72576.3,-3.75,-6.77,-6.63,0,*5C
1487757800.62,52097,11.0,72568.0,-3.75,-6.89,-6.85,0,*54
1487757801.89,52098,10.94,72552.0,-3.77,-7.01,-6.93,0,*5F
1487757803.16,52099,11.0,72566.5,-3.77,-7.01,-7.01,0,*54
1487757804.36,52100,11.0,72574.0,-3.79,-6.89,-6.81,0,*53
1487757805.59,52101,11.0,72560.0,-3.81,-6.81,-6.73,0,*50
1487757806.83,52102,11.0,72554.0,-3.83,-7.05,-6.93,0,*52
1487757808.08,52103,11.0,72552.8,-3.83,-6.97,-6.93,0,*59
1487757809.33,52104,10.94,72562.0,-3.83,-6.97,-7.05,0,*50
1487757810.55,52105,11.0,72570.8,-3.83,-6.93,-6.73,0,*55
1487757811.75,52106,10.94,72568.5,-3.83,-6.31,-6.31,0,*58
1487757813.01,52107,10.94,72572.3,-3.83,-5.89,-5.89,0,*59
1487757814.23,52108,11.0,72568.5,-3.83,-6.19,-6.05,0,*5B
1487757815.47,52109,11.0,72576.0,-3.83,-6.27,-6.19,0,*5A
1487757816.7,52110,11.0,72576.0,-3.81,-6.47,-6.43,0,*59
1487757817.89,52111,11.0,72578.5,-3.83,-6.69,-6.55,0,*51
1487757819.1,52112,10.94,72582.8,-3.83,-6.35,-6.31,0,*59
1487757820.34,52113,11.0,72572.5,-3.83,-6.27,-6.27,0,*5C
1487757821.54,52114,11.0,72578.8,-3.83,-6.43,-6.31,0,*5E
1487757822.8,52115,11.0,72576.3,-3.83,-6.19,-6.19,0,*5A
1487757824.02,52116,11.0,72580.0,-3.87,-6.63,-6.59,0,*54
1487757825.29,52117,11.0,72580.3,-3.89,-6.23,-6.23,0,*52
1487757826.48,52118,11.0,72568.0,-3.87,-6.13,-6.09,0,*58
1487757827.68,52119,11.0,72550.8,-3.87,-6.09,-6.09,0,*52
1487757828.93,52120,11.0,72540.3,-3.89,-6.27,-6.13,0,*51
1487757830.15,52121,11.0,72538.5,-3.87,-6.23,-6.09,0,*51
1487757831.37,52122,11.0,72524.8,-3.87,-6.19,-6.09,0,*5B
1487757832.62,52123,11.0,72538.5,-3.87,-6.19,-6.19,0,*5B
1487757833.81,52124,11.0,72568.3,-3.87,-6.73,-6.73,0,*5C
1487757835.02,52125,10.94,72566.3,-3.87,-6.35,-6.31,0,*59
1487757836.22,52126,11.0,72572.3,-3.87,-6.09,-6.09,0,*5E
1487757837.46,52127,11.0,72574.5,-3.87,-6.23,-6.23,0,*5F
1487757838.71,52128,11.0,72576.8,-3.89,-6.35,-6.23,0,*59
1487757839.96,52129,11.0,72572.5,-3.87,-6.23,-6.19,0,*58
1487757841.21,52130,11.0,72582.5,-3.89,-6.35,-6.23,0,*50
1487757842.42,52131,11.0,72580.0,-3.87,-6.35,-6.31,0,*5C
1487757843.62,52132,11.0,72576.8,-3.87,-6.39,-6.31,0,*53
1487757844.87,52133,11.0,72576.0,-3.89,-6.23,-6.01,0,*54
1487757846.09,52134,11.0,72584.8,-3.89,-6.43,-6.39,0,*5E
1487757847.37,52135,11.0,72580.3,-3.89,-6.23,-6.23,0,*52
1487757848.59,52136,11.0,72578.0,-3.87,-6.19,-6.09,0,*5E
1487757849.81,52137,11.0,72574.8,-3.89,-6.09,-5.97,0,*54
1487757851.04,52138,11.0,72576.0,-3.89,-6.09,-6.09,0,*5F
1487757852.23,52139,11.0,72580.5,-3.87,-6.05,-5.97,0,*58
1487757853.51,52140,10.94,72574.5,-3.89,-5.85,-5.77,0,*5D
1487757854.72,52141,10.94,72574.5,-3.87,-5.51,-5.55,0,*5B
1487757855.95,52142,11.0,72584.0,-3.87,-5.65,-5.55,0,*5F
1487757857.16,52143,11.0,72598.0,-3.87,-5.55,-5.51,0,*59
1487757858.43,52144,10.94,72590.8,-3.89,-5.73,-5.61,0,*57
1487757859.66,52145,11.0,72596.5,-3.89,-6.01,-5.97,0,*59
1487757860.92,52146,11.0,72566.0,-3.87,-5.93,-5.85,0,*5F
1487757862.14,52147,11.0,72560.5,-3.87,-6.19,-6.09,0,*58
1487757863.33,52148,11.0,72558.0,-3.87,-6.09,-6.09,0,*56
1487757864.53,52149,10.94,72538.3,-3.87,-5.97,-5.97,0,*57
1487757865.8,52150,11.0,72540.0,-3.89,-6.27,-6.27,0,*51
1487757867.06,52151,11.0,72544.5,-3.89,-6.35,-6.27,0,*53
1487757868.29,52152,10.94,72548.5,-3.89,-6.09,-5.97,0,*57
1487757869.51,52153,10.94,72554.3,-3.89,-5.97,-5.97,0,*52
1487757870.77,52154,10.94,72566.8,-3.87,-5.93,-5.85,0,*5C
1487757871.96,52155,11.0,72570.5,-3.87,-6.13,-6.01,0,*59
1487757873.2,52156,11.0,72572.3,-3.89,-6.35,-6.35,0,*57
1487757874.44,52157,11.0,72568.3,-3.87,-5.73,-5.69,0,*53
1487757875.72,52158,11.0,72562.3,-3.89,-5.85,-5.77,0,*54
1487757876.95,52159,11.0,72578.3,-3.87,-5.69,-5.55,0,*59
1487757878.2,52160,11.0,72578.8,-3.87,-5.69,-5.73,0,*57
1487757879.45,52161,10.94,72582.8,-3.87,-6.19,-6.19,0,*5D
1487757880.7,52162,11.0,72586.0,-3.89,-6.35,-6.27,0,*53
1487757881.93,52163,11.0,72580.5,-3.89,-5.97,-6.01,0,*5D
1487757883.18,52164,10.94,72578.5,-3.89,-6.23,-6.13,0,*55
1487757884.38,52165,11.0,72586.0,-3.87,-6.47,-6.47,0,*59
1487757885.58,52166,11.0,72580.5,-3.87,-6.51,-6.51,0,*5A
1487757886.81,52167,11.0,72578.0,-3.89,-6.13,-6.13,0,*55
1487757888.09,52168,10.94,72582.8,-3.89,-5.65,-5.61,0,*5E
1487757889.32,52169,11.0,72588.3,-3.89,-5.55,-5.47,0,*58
1487757890.6,52170,10.94,72586.0,-3.89,-5.89,-5.89,0,*53
1487757891.86,52171,11.0,72598.8,-3.87,-5.85,-5.81,0,*58
1487757893.08,52172,11.0,72604.5,-3.87,-5.97,-5.85,0,*5C
1487757894.28,52173,10.94,72590.0,-3.87,-6.05,-6.13,0,*59
1487757895.5,52174,10.94,72588.8,-3.89,-6.01,-6.01,0,*57
1487757896.73,52175,11.0,72594.8,-3.89,-6.13,-6.09,0,*5D
1487757897.99,52176,11.0,72588.5,-3.89,-5.97,-5.89,0,*5A
1487757899.24,52177,11.0,72592.8,-3.87,-5.93,-5.81,0,*59
1487757900.52,52178,10.94,72582.0,-3.89,-5.85,-5.77,0,*56
1487757901.72,52179,10.94,72582.0,-3.87,-6.09,-5.97,0,*50
1487757902.95,52180,10.94,72584.8,-3.89,-6.43,-6.35,0,*5D
1487757904.21,52181,11.0,72586.8,-3.89,-5.73,-5.73,0,*5D
1487757905.41,52182,10.94,72586.5,-3.87,-5.43,-5.39,0,*5D
1487757906.61,52183,11.0,72590.8,-3.87,-5.47,-5.43,0,*55
1487757907.8,52184,10.94,72592.8,-3.87,-5.43,-5.43,0,*56
1487757909.05,52185,10.94,72594.3,-3.87,-5.31,-5.31,0,*57
1487757910.25,52186,11.0,72596.5,-3.87,-5.39,-5.39,0,*54
1487757911.45,52187,10.94,72596.0,-3.83,-5.35,-5.35,0,*51
1487757912.65,52188,10.94,72602.8,-3.83,-5.55,-5.51,0,*5A
1487757913.88,52189,11.0,72604.0,-3.81,-5.51,-5.47,0,*5A
1487757915.15,52190,11.0,72608.8,-3.81,-5.81,-5.77,0,*5C
1487757916.4,52191,11.0,72608.8,-3.83,-6.27,-6.19,0,*5B
1487757917.63,52192,11.0,72602.8,-3.81,-6.31,-6.35,0,*53
1487757918.9,52193,11.0,72610.0,-3.81,-6.27,-6.27,0,*56
1487757920.12,52194,10.94,72604.3,-3.83,-6.19,-6.05,0,*5E
1487757921.32,52195,10.94,72606.8,-3.83,-6.43,-6.31,0,*57
1487757922.52,52196,10.94,72598.0,-3.83,-6.31,-6.31,0,*51
1487757923.75,52197,11.0,72592.3,-3.83,-6.27,-6.31,0,*57
1487757925.0,52198,11.0,72580.5,-3.89,-6.69,-6.63,0,*5F
1487757926.19,52199,11.0,72574.5,-3.87,-6.39,-6.39,0,*5A
1487757927.42,52200,11.0,72566.3,-3.89,-6.13,-6.01,0,*54
1487757928.66,52201,10.94,72558.8,-3.87,-5.73,-5.73,0,*58
1487757929.93,52202,10.94,72556.8,-3.89,-5.77,-5.77,0,*55
1487757931.18,52203,11.0,72564.8,-3.87,-5.81,-5.73,0,*57
1487757932.43,52204,10.94,72572.8,-3.87,-5.85,-5.85,0,*5D
1487757933.68,52205,10.94,72574.5,-3.83,-5.81,-5.77,0,*51
1487757934.88,52206,11.0,72574.3,-3.83,-5.51,-5.47,0,*5C
1487757936.11,52207,10.94,72572.5,-3.81,-5.51,-5.39,0,*56
1487757937.31,52208,10.94,72568.8,-3.83,-5.51,-5.47,0,*52
1487757938.53,52209,11.0,72570.0,-3.81,-5.47,-5.39,0,*5F
1487757939.76,52210,10.94,72572.8,-3.81,-5.39,-5.39,0,*5E
1487757940.98,52211,10.94,72590.0,-3.81,-5.39,-5.39,0,*5F
1487757942.26,52212,10.94,72586.0,-3.81,-5.81,-5.77,0,*55
1487757943.53,52213,11.0,72584.3,-3.81,-5.69,-5.69,0,*5D
1487757944.76,52214,11.0,72582.3,-3.81,-5.51,-5.39,0,*54
1487757945.96,52215,11.0,72574.3,-3.79,-5.51,-5.47,0,*5B
1487757947.18,52216,11.0,72572.3,-3.79,-5.61,-5.51,0,*5C
1487757948.43,52217,10.94,72574.0,-3.79,-5.61,-5.61,0,*5E
1487757949.68,52218,11.0,72574.8,-3.79,-5.61,-5.61,0,*51
1487757950.96,52219,11.0,72576.8,-3.77,-5.85,-5.73,0,*57
1487757952.18,52220,11.0,72586.5,-3.79,-5.97,-5.89,0,*55
1487757953.46,52221,10.94,72582.8,-3.77,-5.89,-5.85,0,*59
1487757954.73,52222,11.0,72598.0,-3.77,-5.77,-5.73,0,*52
1487757956.0,52223,10.94,72592.5,-3.77,-5.89,-5.89,0,*57
1487757957.22,52224,10.94,72596.8,-3.79,-5.61,-5.51,0,*5D
1487757958.5,52225,10.94,72600.8,-3.77,-5.85,-5.85,0,*51
1487757959.78,52226,11.0,72600.3,-3.77,-5.85,-5.77,0,*5F
1487757961.05,52227,10.94,72608.0,-3.77,-5.77,-5.77,0,*53
1487757962.27,52228,10.94,72612.5,-3.79,-6.01,-5.89,0,*51
1487757963.55,52229,10.94,72614.5,-3.77,-5.77,-5.65,0,*5E
1487757964.82,52230,11.0,72616.0,-3.77,-5.65,-5.65,0,*55
1487757966.09,52231,10.94,72612.3,-3.77,-5.85,-5.73,0,*5D
1487757967.34,52232,10.94,72618.5,-3.75,-5.81,-5.73,0,*58
1487757968.58,52233,10.94,72614.5,-3.75,-5.73,-5.69,0,*5F
1487757969.83,52234,10.94,72610.8,-3.75,-5.69,-5.69,0,*53
1487757971.1,52235,11.0,72618.8,-3.77,-5.85,-5.77,0,*5D
1487757972.38,52236,10.94,72622.0,-3.77,-5.89,-5.89,0,*53
1487757973.66,52237,10.94,72622.8,-3.77,-5.89,-5.85,0,*5E
1487757974.88,52238,10.94,72624.5,-3.79,-6.01,-5.89,0,*50
1487757976.08,52239,10.94,72622.0,-3.79,-6.13,-6.01,0,*51
1487757977.3,52240,11.0,72612.8,-3.77,-6.39,-6.31,0,*5A
1487757978.52,52241,11.0,72614.5,-3.77,-6.09,-5.97,0,*57
1487757979.72,52242,10.94,72602.3,-3.79,-6.01,-5.97,0,*52
1487757980.91,52243,10.94,72598.8,-3.79,-6.09,-6.01,0,*57
1487757982.11,52244,11.0,72594.0,-3.79,-6.09,-6.13,0,*53
1487757983.33,52245,10.94,72580.3,-3.79,-6.27,-6.31,0,*5E
1487757984.57,52246,10.94,72572.5,-3.79,-6.23,-6.23,0,*5A
1487757985.82,52247,10.94,72572.3,-3.83,-6.27,-6.27,0,*5E
1487757987.01,52248,10.94,72574.5,-3.83,-6.13,-6.13,0,*51
1487757988.24,52249,10.94,72578.8,-3.83,-6.01,-5.93,0,*58
1487757989.49,52250,10.94,72576.8,-3.83,-5.89,-5.89,0,*58
1487757990.74,52251,10.94,72576.5,-3.81,-6.01,-5.93,0,*53
1487757991.97,52252,10.94,72576.3,-3.81,-6.13,-6.13,0,*58
1487757993.22,52253,10.94,72572.0,-3.83,-5.93,-5.93,0,*5B
1487757994.44,52254,10.94,72568.8,-3.83,-6.19,-6.13,0,*56
1487757995.69,52255,11.0,72562.3,-3.83,-5.89,-5.89,0,*5D
1487757996.94,52256,10.94,72592.5,-3.83,-6.27,-6.19,0,*53
1487757998.19,52257,10.94,72576.5,-3.87,-6.19,-6.23,0,*52
1487757999.38,52258,11.0,72580.3,-3.87,-6.47,-6.39,0,*5D
1487758000.65,52259,10.94,72566.5,-3.89,-6.27,-6.27,0,*5B
1487758001.9,52260,11.0,72544.5,-3.89,-6.39,-6.27,0,*5E
1487758003.13,52261,11.0,72554.0,-3.89,-6.39,-6.35,0,*5C
1487758004.4,52262,10.94,72574.3,-3.89,-6.27,-6.27,0,*53
1487758005.68,52263,10.94,72584.5,-3.89,-6.23,-6.23,0,*52
1487758006.9,52264,10.94,72582.3,-3.91,-6.35,-6.27,0,*5F
1487758008.13,52265,11.0,72608.3,-3.93,-6.31,-6.31,0,*5F
1487758009.36,52266,10.94,72600.8,-3.93,-6.47,-6.55,0,*5F
1487758010.58,52267,10.94,72588.8,-3.93,-6.55,-6.47,0,*5E
1487758011.78,52268,11.0,72578.8,-3.91,-6.51,-6.39,0,*5E
1487758012.98,52269,10.94,72558.0,-3.95,-6.43,-6.39,0,*58
1487758014.18,52270,10.94,72556.5,-3.95,-6.47,-6.55,0,*5E
1487758015.41,52271,10.94,72564.8,-3.95,-6.27,-6.31,0,*5B
1487758016.61,52272,11.0,72580.0,-3.95,-6.47,-6.43,0,*5B
1487758017.84,52273,10.94,72564.5,-3.97,-6.47,-6.51,0,*5B
1487758019.1,52274,10.94,72572.0,-3.97,-6.31,-6.23,0,*58
1487758020.32,52275,11.0,72568.3,-3.95,-6.19,-6.13,0,*52
1487758021.56,52276,10.94,72582.0,-3.97,-6.35,-6.31,0,*5D
1487758022.79,52277,10.94,72596.0,-3.95,-6.19,-6.13,0,*50
1487758024.04,52278,11.0,72600.5,-3.95,-6.27,-6.19,0,*58
1487758025.27,52279,10.94,72588.0,-3.97,-6.31,-6.31,0,*56
1487758026.46,52280,10.94,72572.0,-3.95,-6.05,-6.05,0,*52
1487758027.75,52281,10.94,72568.3,-3.97,-5.93,-5.93,0,*51
1487758028.99,52282,10.94,72568.5,-3.97,-6.51,-6.47,0,*55
1487758030.23,52283,11.0,72572.8,-3.97,-6.35,-6.31,0,*57
1487758031.48,52284,11.0,72590.8,-3.97,-6.31,-6.23,0,*57
1487758032.71,52285,11.0,72584.0,-3.97,-6.05,-6.05,0,*55
1487758033.99,52286,11.0,72578.3,-3.97,-5.85,-5.93,0,*51
1487758035.27,52287,10.94,72566.8,-3.97,-6.23,-6.23,0,*57
1487758036.52,52288,10.94,72552.8,-3.99,-6.19,-6.23,0,*5F
1487758037.78,52289,10.94,72548.3,-3.99,-6.23,-6.19,0,*5E
1487758039.04,52290,10.94,72560.0,-3.99,-6.19,-6.19,0,*5F
1487758040.27,52291,10.94,72570.5,-3.99,-6.19,-6.09,0,*5F
1487758041.47,52292,10.94,72574.8,-3.99,-6.09,-6.09,0,*5D
1487758042.75,52293,10.94,72582.5,-3.97,-6.23,-6.23,0,*52
1487758044.0,52294,11.0,72600.0,-3.99,-6.23,-6.19,0,*52
1487758045.26,52295,10.94,72608.3,-3.99,-6.23,-6.19,0,*53
1487758046.47,52296,10.94,72614.5,-3.99,-6.43,-6.31,0,*5C
1487758047.68,52297,10.94,72610.8,-3.99,-6.35,-6.35,0,*58
1487758048.88,52298,10.94,72606.5,-3.99,-6.73,-6.59,0,*5F
1487758050.08,52299,10.94,72592.5,-3.99,-6.73,-6.73,0,*56
1487758051.29,52300,10.94,72584.8,-3.99,-6.47,-6.47,0,*57
1487758052.52,52301,10.94,72590.3,-4.01,-6.69,-6.81,0,*56
1487758053.75,52302,11.0,72594.5,-4.01,-6.89,-6.89,0,*53
1487758054.97,52303,11.0,72598.8,-4.01,-6.89,-6.89,0,*52
1487758056.19,52304,10.94,72596.5,-3.99,-6.35,-6.31,0,*57
1487758057.41,52305,10.94,72594.3,-4.03,-6.35,-6.23,0,*51
1487758058.64,52306,10.94,72594.3,-4.01,-6.39,-6.35,0,*5B
1487758059.89,52307,10.94,72594.0,-4.01,-6.13,-6.23,0,*55
1487758061.12,52308,10.94,72594.5,-4.01,-6.35,-6.35,0,*59
1487758062.33,52309,10.94,72590.5,-4.05,-6.55,-6.43,0,*5B
1487758063.53,52310,10.94,72592.0,-4.03,-6.47,-6.39,0,*5B
1487758064.76,52311,10.94,72592.8,-4.01,-6.01,-6.01,0,*51
1487758065.95,52312,10.94,72592.0,-4.03,-6.13,-5.97,0,*5F
1487758067.18,52313,10.94,72594.5,-4.03,-5.97,-5.85,0,*52
1487758068.43,52314,10.94,72598.8,-4.03,-5.77,-5.77,0,*56
1487758069.69,52315,10.94,72604.8,-4.03,-5.85,-5.73,0,*5E
1487758070.94,52316,10.94,72604.0,-4.03,-5.77,-5.77,0,*54
1487758072.21,52317,10.94,72604.0,-4.01,-5.77,-5.77,0,*57
1487758073.44,52318,10.94,72604.5,-3.99,-5.97,-5.93,0,*5A
1487758074.73,52319,10.94,72608.5,-4.01,-5.89,-5.85,0,*55
1487758076.01,52320,10.94,72610.0,-4.01,-5.85,-5.73,0,*5A
1487758077.24,52321,11.0,72610.3,-3.99,-5.69,-5.55,0,*5B
1487758078.45,52322,10.94,72610.0,-3.99,-5.51,-5.43,0,*54
1487758079.7,52323,10.94,72604.5,-3.99,-5.81,-5.73,0,*5B
1487758080.95,52324,10.94,72598.3,-3.95,-5.81,-5.77,0,*54
1487758082.24,52325,10.94,72596.0,-3.97,-5.31,-5.27,0,*59
1487758083.53,52326,10.94,72598.3,-3.97,-5.27,-5.19,0,*50
1487758084.76,52327,10.94,72602.8,-3.95,-5.39,-5.23,0,*55
1487758085.96,52328,10.94,72610.0,-3.95,-5.43,-5.39,0,*5C
1487758087.25,52329,10.94,72610.0,-3.97,-5.31,-5.27,0,*55
1487758088.47,52330,10.94,72608.8,-3.93,-5.51,-5.39,0,*50
1487758089.76,52331,10.94,72616.0,-3.93,-5.23,-5.15,0,*5A
1487758091.01,52332,10.94,72618.8,-3.93,-5.61,-5.51,0,*5F
1487758092.26,52333,10.94,72614.5,-3.93,-5.65,-5.51,0,*5A
1487758093.51,52334,10.94,72616.3,-3.93,-5.61,-5.47,0,*5E
1487758094.73,52335,10.94,72618.0,-3.91,-5.61,-5.47,0,*5D
1487758095.92,52336,10.94,72618.0,-3.91,-5.39,-5.39,0,*5A
1487758097.12,52337,10.94,72612.0,-3.91,-5.43,-5.43,0,*5B
1487758098.39,52338,10.94,72606.8,-3.89,-5.77,-5.77,0,*5D
1487758099.68,52339,10.94,72598.8,-3.89,-5.89,-5.89,0,*5C
1487758100.93,52340,10.94,72610.5,-3.91,-5.85,-5.73,0,*52
1487758102.17,52341,10.94,72604.8,-3.93,-6.05,-5.93,0,*54
1487758103.4,52342,10.94,72602.0,-3.91,-5.97,-5.89,0,*56
1487758104.6,52343,10.94,72598.3,-3.91,-6.01,-6.01,0,*58
1487758105.84,52344,10.94,72594.0,-3.91,-6.27,-6.23,0,*5B
1487758107.09,52345,10.94,72584.5,-3.93,-6.19,-6.13,0,*56
1487758108.31,52346,10.94,72580.3,-3.93,-6.05,-6.13,0,*58
1487758109.56,52347,10.94,72586.3,-3.93,-6.39,-6.19,0,*5C
1487758110.75,52348,10.94,72594.3,-3.91,-6.01,-6.01,0,*53
1487758111.95,52349,10.94,72600.0,-3.91,-6.09,-6.13,0,*59
1487758113.18,52350,10.94,72606.8,-3.93,-6.31,-6.31,0,*58
1487758114.43,52351,10.94,72600.8,-3.93,-6.19,-6.13,0,*53
1487758115.71,52352,10.94,72606.5,-3.93,-5.69,-5.69,0,*5A
1487758116.93,52353,10.94,72606.5,-3.93,-5.47,-5.47,0,*5B